Location: ??????????
(44.2167°N, 135.5333°E)
Time: 15:19:55
(UTC+00:00)

SL-14 R/B - Pass Details

Date: 15 June 2025
Orbit: 499 x 531 km, 82.4° (Epoch: 15 July)

Event Time Altitude Azimuth Distance (km) Brightness Sun altitude
Exits shadow 12:16:32 - 196° (SSW) 2,038 5.9 -13.0°
Reaches altitude 10° 12:17:11 10° 198° (SSW) 1,776 5.6 -13.0°
Maximum altitude 12:21:04 64° 280° (W) 593 3.6 -13.5°
Drops below altitude 10° 12:24:58 10° 3° (N) 1,790 6.7 -13.9°
Sets 12:27:09 0° 6° (N) 2,682 7.6 -14.1°
